Flag for Germany Weather past 2 weeks in Aschersleben, Saxony-Anhalt, Germany

Now
38 °F

Overcast.


Feels Like: 36 °F
Forecast: 37 / 49 °F
Wind: 3 mph from Southwest

Location: Magdeburg

Current Time: Mar 31, 2015 at 1:30:35 AM

Latest Report: Mar 31, 2015 at 1:00 AM


Visibility: 28 mi

Pressure: 29.70 "Hg

Humidity: 73%

Dew point: 31 °F

Location of AscherslebenLocation

Historic Weather in Aschersleben — Graph

°F

Aschersleben temperature yesterday

Maximum temperature yesterday: 49 °F (at 12:00 AM)
Minimum temperature yesterday: 38 °F (at 9:00 PM)
Average temperature yesterday: 44 °F

Past Weeks' High & Low Weather Summary

 TemperatureHumidityPressure
High61 °F (Mar 25, 5:00 PM)96% (Mar 21, 3:00 AM)30.42 "Hg (Mar 21, 3:00 AM)
Low27 °F (Mar 23, 5:00 AM)29% (Mar 19, 5:00 PM)29.12 "Hg (Mar 30, 12:00 AM)
Average44 °F70%30.02 "Hg
* Reported Mar 15 11:00 PM — Midnight between Mar 30 and Mar 31, Aschersleben, Weather by CustomWeather, © 2015

Note: Actual official high and low records may vary slightly from our data, if they occured in-between our weather recording intervals... More about our weather records

Advertising

Aschersleben weather history for previous 24 hours

 ConditionsComfort  
Time TempWeatherWind HumidityBarometerVisibility
12:00 AM
Tue, Mar 31
40 °FOvercast.5 mph68%29.72 "Hg25 mi
10:00 PM
Mon, Mar 30
40 °FPassing clouds.5 mph73%29.71 "Hg31 mi
9:00 PM38 °FPassing clouds.3 mph80%29.71 "Hg31 mi
8:00 PM42 °FPassing clouds.7 mph66%29.67 "Hg31 mi
7:00 PM44 °FScattered clouds.7 mph69%29.63 "Hg31 mi
6:00 PM43 °FScattered clouds.7 mph78%29.59 "Hg31 mi
4:00 PM48 °FOvercast.8 mph64%29.50 "Hg31 mi
3:00 PM48 °FOvercast.9 mph64%29.47 "Hg31 mi
2:00 PM42 °FPartly sunny.10 mph76%29.44 "Hg31 mi
1:00 PM42 °FSprinkles. Overcast.10 mph82%29.41 "Hg10 mi
12:00 PM46 °FPartly sunny.10 mph67%29.35 "Hg25 mi
10:00 AM45 °FScattered clouds.9 mph69%29.32 "Hg37 mi
9:00 AM44 °FPartly sunny.8 mph72%29.29 "Hg37 mi
8:00 AM41 °FPartly sunny.9 mph77%29.29 "Hg37 mi
7:00 AM42 °FSprinkles. Partly sunny.6 mph81%29.26 "Hg37 mi
6:00 AM42 °FOvercast.7 mph81%29.23 "Hg10 mi
4:00 AM44 °FOvercast.9 mph75%29.23 "Hg40 mi
3:00 AM44 °FPassing clouds.10 mph73%29.21 "Hg43 mi
2:00 AM45 °FPassing clouds.9 mph73%29.21 "Hg43 mi
1:00 AM47 °FPassing clouds.12 mph73%29.15 "Hg43 mi
Weather by CustomWeather, © 2015

See weather overviewHow to use our weather pages